This is the latest recevied weather packets stored in our database for station/object DL9GJ-6. If no packets are shown the sender has not sent any weather packets the latest 10 day(s).
| Time | Temp. | Humidity | Pressure | Rain* | Wind** | Luminosity | Snow |
|---|---|---|---|---|---|---|---|
| 1777302477 | 19.44° C | 32% | 1018 hPa | 0 mm | - | 199 W/m² | - |
| 1777302450 | 19.44° C | 32% | 1018 hPa | 0 mm | - | 199 W/m² | - |
| 1777302117 | 19.44° C | 32% | 1018 hPa | 0 mm | - | 369 W/m² | - |
| 1777302092 | 19.44° C | 32% | 1018 hPa | 0 mm | - | 369 W/m² | - |
| 1777301758 | 19.44° C | 30% | 1018.1 hPa | 0 mm | - | 212 W/m² | - |
| 1777301397 | 19.44° C | 30% | 1018.1 hPa | 0 mm | - | 212 W/m² | - |
| 1777301039 | 19.44° C | 31% | 1018.2 hPa | 0 mm | - | 245 W/m² | - |
| 1777301010 | 19.44° C | 31% | 1018.2 hPa | 0 mm | - | 245 W/m² | - |
| 1777300677 | 19.44° C | 29% | 1018.2 hPa | 0 mm | - | 385 W/m² | - |
| 1777300319 | 20° C | 28% | 1018.3 hPa | 0 mm | - | 376 W/m² | - |
| 1777300298 | 20° C | 28% | 1018.3 hPa | 0 mm | - | 376 W/m² | - |
| 1777299959 | 20° C | 32% | 1018.3 hPa | 0 mm | - | 313 W/m² | - |
| 1777299599 | 19.44° C | 31% | 1018.4 hPa | 0 mm | - | 466 W/m² | - |
| 1777299568 | 19.44° C | 31% | 1018.4 hPa | 0 mm | - | 466 W/m² | - |
| 1777299238 | 19.44° C | 33% | 1018.4 hPa | 0 mm | - | 379 W/m² | - |
| 1777298879 | 19.44° C | 34% | 1018.6 hPa | 0 mm | - | 443 W/m² | - |
| 1777298519 | 19.44° C | 36% | 1018.7 hPa | 0 mm | - | 462 W/m² | - |
| 1777298159 | 19.44° C | 35% | 1018.7 hPa | 0 mm | - | 500 W/m² | - |
| 1777297798 | 19.44° C | 35% | 1018.8 hPa | 0 mm | - | 509 W/m² | - |
| 1777297769 | 19.44° C | 35% | 1018.8 hPa | 0 mm | - | 509 W/m² | - |
| 1777297437 | 19.44° C | 33% | 1018.7 hPa | 0 mm | - | 481 W/m² | - |
| 1777297411 | 19.44° C | 33% | 1018.7 hPa | 0 mm | - | 481 W/m² | - |
| 1777297077 | 19.44° C | 34% | 1018.9 hPa | 0 mm | - | 455 W/m² | - |
| 1777296717 | 20° C | 37% | 1018.9 hPa | 0 mm | - | 484 W/m² | - |
| 1777296357 | 19.44° C | 37% | 1019 hPa | 0 mm | - | 526 W/m² | - |
* Rain latest hour (hover to see other rain measurements)
** Current wind speed in m/s (hover to see current wind gust speed)